Temperature
17 17 17 17 17 17 17 17 17 17 17 17 17 17 17 17 17 17 17 17 17 17 16 16 16 16 16 16 16 16 16 16 16 16 16 16 16 16 16 16 16 15 15
17 17 17 17 17 17 17 17 17 17 17 17 17 17 17 17 17 17 17 17 17 17 17 16 16 16 16 16 16 16 16 16 16 16 16 16 16 16 16 16 16 16 15
17 17 17 17 17 17 17 17 17 17 17 17 17 17 17 17 17 17 17 16 17 17 17 17 16 16 16 16 16 16 16 16 16 16 16 16 16 16 16 16 16 15 15
18 18 17 17 17 17 17 17 17 17 17 17 17 17 17 17 17 17 17 17 16 17 17 17 16 16 16 16 16 16 16 16 16 16 16 16 16 16 16 16 16 15 15
18 18 17 17 17 17 17 17 17 17 17 17 17 17 17 17 17 17 17 17 17 16 16 17 17 16 16 16 16 16 16 16 16 16 16 16 16 16 16 15 15 15 15
18 17 17 17 17 17 17 17 17 17 17 17 18 18 17 17 17 17 17 17 17 17 17 16 16 16 16 16 16 16 16 16 16 16 16 16 16 16 16 15 15 15 15
17 18 17 17 17 17 17 17 17 17 17 17 17 17 18 18 18 17 17 17 17 17 17 16 16 16 16 16 16 16 16 16 16 16 16 16 16 16 16 16 15 15 15
17 17 17 17 17 17 17 17 17 17 17 17 17 18 18 18 17 18 17 17 17 17 17 17 16 16 16 16 16 16 16 16 16 16 16 16 16 16 15 15 15 15 15
17 17 17 17 17 17 17 17 17 17 17 17 17 18 19 19 19 18 18 17 17 17 17 17 17 16 16 16 16 16 16 16 16 16 16 16 15 15 15 15 15 15 15
17 17 17 17 17 17 17 17 17 17 17 17 17 17 18 18 18 19 18 18 17 17 17 17 17 17 16 16 16 16 16 16 16 16 16 16 16 16 15 15 15 15 15
17 17 17 17 17 17 17 17 17 17 17 17 18 17 17 17 18 18 19 19 18 18 17 17 17 17 17 17 16 16 16 16 16 16 16 16 16 16 16 15 15 15 15
17 17 17 17 17 17 17 17 17 17 17 17 17 17 17 18 18 18 19 18 19 19 18 18 17 17 17 17 17 17 17 16 16 16 16 16 16 16 16 15 15 15 15
17 17 17 17 17 17 17 17 17 17 17 17 17 17 17 18 18 18 18 19 19 19 18 18 18 17 17 17 17 17 17 17 16 16 16 16 16 16 16 15 15 15 15
17 17 17 17 17 17 17 17 17 17 17 17 17 17 17 17 18 18 18 18 19 19 19 18 18 18 17 17 17 17 17 17 17 16 16 16 16 16 16 15 15 15 15
17 17 17 17 17 17 17 17 17 17 17 17 17 17 17 17 17 17 17 18 18 19 19 18 18 18 17 17 17 17 16 16 17 16 16 16 16 16 16 15 15 15 15
17 17 17 17 17 17 17 17 17 17 17 17 17 16 16 17 17 17 17 17 17 18 18 19 18 18 17 17 17 17 16 16 17 17 16 16 16 16 16 15 15 15 15
16 16 16 16 16 16 16 17 17 16 16 16 16 16 16 16 17 17 17 17 17 17 17 18 18 17 17 17 17 16 16 16 16 16 16 16 16 16 16 15 15 15 15
16 16 16 16 16 16 16 16 16 16 16 16 16 16 16 16 16 16 16 16 17 17 17 17 17 17 16 16 16 16 16 16 16 16 16 16 16 16 15 15 15 15 15
16 16 16 16 16 16 16 16 16 16 16 16 16 16 16 16 16 16 16 16 16 16 16 16 16 16 16 16 16 15 15 16 16 16 15 15 15 15 15 15 15 15 15
16 16 16 16 16 16 16 16 16 16 16 16 16 15 15 15 15 15 15 15 15 16 16 16 16 16 16 15 15 15 15 15 15 15 15 15 15 15 15 15 15 15 15
16 16 16 16 16 16 16 16 16 15 15 15 15 15 15 15 15 15 15 15 15 15 15 15 15 15 15 15 15 15 15 15 15 15 15 14 14 14 14 14 14 14 14
16 16 16 16 15 15 16 16 16 15 15 15 15 15 15 15 15 15 15 15 15 15 15 15 15 15 14 14 14 14 14 14 14 14 14 14 14 14 14 14 13 13 13
16 15 15 15 15 15 15 15 15 15 15 15 15 15 15 15 15 14 14 14 14 14 14 14 14 14 13 13 13 13 13 13 13 13 13 13 14 13 13 13 13 13 13
15 15 15 15 15 15 15 15 15 15 14 14 14 14 14 14 14 14 14 14 14 14 13 13 13 13 13 13 13 12 12 12 13 13 12 12 13 13 13 12 12 12 12
15 14 14 14 14 14 14 14 14 14 14 14 14 14 14 14 13 13 13 13 13 13 13 13 12 12 12 12 12 12 12 12 12 12 12 12 12 12 12 12 12 11 11
14 14 14 14 14 14 14 14 14 14 14 13 13 13 13 13 13 13 12 12 12 12 12 12 12 11 11 11 11 11 11 11 11 12 11 11 11 11 11 11 11 11 11
Wind_Speed
6 6 5 5 6 6 7 5 5 5 4 4 3 3 3 2 3 3 7 10 8 8 8 9 8 8 8 8 7 7 7 7 7 7 7 7 7 7 6 6 6 6 6
6 6 6 6 6 6 6 5 5 5 4 3 3 3 3 3 3 3 5 10 10 9 9 9 9 8 8 8 8 8 8 8 8 8 8 7 8 7 7 7 6 6 6
7 7 6 6 6 6 5 5 5 5 5 5 4 4 3 3 3 4 4 5 9 11 10 9 9 9 9 9 9 9 9 9 9 9 9 9 9 9 8 8 8 8 7
9 7 6 6 6 6 6 5 5 5 4 4 4 3 3 3 4 5 5 5 6 8 12 12 10 10 9 9 10 10 10 10 10 10 10 11 10 10 10 9 9 9 9
10 9 7 6 7 6 6 6 6 5 5 4 4 4 4 4 4 5 5 6 6 5 7 13 12 11 10 10 10 10 10 11 11 11 11 11 11 11 11 11 11 11 11
11 10 8 8 8 6 6 5 4 4 4 4 5 3 4 4 4 4 5 6 6 7 7 7 10 12 13 12 12 11 11 11 11 12 12 12 12 12 13 13 13 12 13
11 10 8 8 8 7 7 7 6 7 6 4 4 4 4 5 5 4 5 5 6 7 6 7 8 7 10 15 14 12 12 12 12 12 12 12 12 13 13 14 14 14 14
12 11 10 9 9 7 8 8 7 6 5 5 4 4 4 4 5 6 5 6 7 7 8 9 8 7 7 7 11 15 14 13 13 13 13 13 13 14 14 14 15 15 15
13 12 11 10 9 9 8 9 8 8 6 6 5 4 4 3 3 4 6 6 6 6 7 7 9 9 9 8 8 14 15 14 13 13 13 13 13 14 14 14 14 15 15
13 13 12 11 10 9 8 9 9 7 7 6 5 5 5 3 3 2 5 6 7 7 7 6 7 9 9 9 8 7 12 14 14 13 13 13 14 14 14 14 14 14 14
12 13 13 12 11 10 9 9 8 9 8 7 6 6 6 5 6 5 4 4 5 6 7 8 7 7 8 9 8 10 13 14 14 14 13 14 14 14 14 14 14 14 14
10 13 13 12 11 10 10 10 9 10 8 7 7 6 6 6 6 6 5 5 5 5 6 6 7 8 8 9 9 8 12 13 14 14 14 14 14 14 14 14 14 14 14
10 12 12 11 11 10 10 10 10 10 10 9 9 8 7 7 6 6 6 5 4 4 5 6 7 8 9 9 8 10 12 14 14 14 14 14 14 15 15 15 15 15 15
10 11 12 11 11 11 11 10 10 10 9 9 10 9 7 8 7 6 6 6 6 6 6 6 5 7 7 8 7 10 10 15 15 15 15 15 15 15 15 15 16 15 15
9 11 11 11 11 11 10 10 9 9 9 9 9 9 9 8 7 7 6 7 7 7 6 6 6 6 7 7 6 9 10 12 15 15 15 15 15 15 15 15 16 16 16
9 9 10 10 10 10 10 9 8 9 9 8 7 7 8 8 7 7 7 7 7 7 7 5 5 5 4 6 7 9 10 10 14 15 15 15 15 16 16 16 16 17 17
9 9 9 10 10 9 9 9 9 8 9 9 8 8 9 8 7 7 7 8 8 8 8 7 5 4 4 7 5 7 10 10 11 16 16 15 15 16 16 17 17 18 18
9 10 9 9 9 9 9 9 9 9 9 10 9 8 9 7 8 8 7 8 7 7 8 9 7 6 6 6 6 8 9 10 10 11 14 14 14 15 16 17 17 17 18
8 9 9 9 9 8 8 8 9 9 9 8 8 8 8 7 7 7 7 7 6 7 7 8 8 5 6 5 6 7 8 7 10 8 12 14 14 15 16 16 17 17 17
8 8 8 8 8 7 7 8 8 8 7 7 6 6 6 7 7 7 6 7 7 7 6 8 7 6 5 5 5 6 7 6 7 8 7 8 11 14 16 16 16 16 17
7 7 7 7 7 6 6 6 6 6 6 6 5 5 6 4 2 3 5 5 5 6 6 6 6 6 5 4 5 6 7 7 6 6 7 8 8 9 10 14 16 15 15
5 5 6 5 5 4 3 3 4 5 5 5 5 5 5 4 4 4 3 3 4 5 6 6 6 6 5 5 5 6 7 8 8 5 6 8 8 9 8 9 7 10 13
5 5 5 5 4 4 5 4 2 3 4 4 4 4 4 3 4 5 5 6 4 4 5 6 6 6 5 5 5 7 7 8 9 7 7 9 8 9 9 8 4 7 10
5 5 5 5 5 5 6 5 3 4 3 2 2 2 2 1 1 2 3 3 3 2 2 3 3 4 4 4 5 7 8 9 9 7 6 8 8 8 8 8 5 8 10
6 5 5 5 5 5 5 3 1 3 3 2 2 3 1 1 3 3 2 2 2 1 2 3 1 1 2 3 5 6 7 7 8 7 4 7 8 8 8 9 7 8 11
6 6 6 6 5 5 5 3 0 2 3 3 3 4 5 4 4 3 0 0 0 1 1 1 2 3 3 2 4 5 6 7 7 7 4 5 8 8 9 7 7 7 9
Wind_Direction
176 165 166 169 175 163 172 184 180 169 180 181 185 174 184 161 153 152 137 159 176 186 184 183 186 188 184 182 182 183 184 179 178 179 179 178 175 174 175 177 177 178 182
176 176 178 180 181 184 182 188 184 187 200 186 196 190 203 184 159 189 164 164 181 191 195 194 194 195 193 189 193 196 198 195 193 193 192 190 187 188 192 195 196 196 196
183 191 187 189 187 186 180 196 194 200 202 199 199 202 204 208 177 194 193 177 179 187 196 201 202 202 202 200 204 208 209 208 206 205 204 203 201 202 206 210 211 211 212
194 201 201 197 186 194 192 191 202 206 205 212 204 213 202 199 204 202 196 197 200 186 186 194 204 206 208 210 212 213 214 215 215 213 212 212 212 213 215 219 220 220 221
200 207 210 196 197 203 203 210 190 213 209 217 212 207 215 207 207 209 204 205 199 207 191 176 195 207 213 217 218 217 217 217 217 218 217 218 218 219 221 224 227 228 229
204 210 210 200 206 203 205 215 189 209 225 221 235 203 222 217 217 207 215 208 205 208 209 189 192 203 208 217 221 222 220 217 218 222 223 224 224 224 226 227 230 232 234
205 211 216 200 210 206 208 206 205 201 215 210 222 224 219 221 224 218 222 221 213 213 215 207 216 210 197 206 214 222 223 220 221 222 225 226 226 227 229 230 231 233 235
206 209 216 210 208 207 209 211 212 220 210 199 219 226 226 208 215 220 214 217 221 211 212 211 211 215 232 207 201 210 221 224 225 225 226 227 228 230 232 233 234 236 237
210 216 211 215 213 214 208 211 207 213 215 208 219 235 242 231 199 196 215 218 215 217 221 212 214 215 222 223 212 204 212 221 225 228 228 227 228 230 232 235 238 238 239
215 214 214 216 218 218 211 212 209 215 219 218 209 232 262 310 268 221 204 199 206 218 229 229 221 212 218 224 217 208 205 216 222 227 232 232 230 230 232 236 239 241 241
216 217 216 215 215 220 216 219 210 218 217 225 220 214 224 230 244 259 244 219 208 214 215 223 229 224 219 225 223 212 199 213 221 227 233 236 235 235 235 238 241 242 242
215 216 216 213 215 219 214 214 215 216 225 229 233 226 222 227 231 237 246 239 232 225 217 221 226 225 225 226 223 178 195 211 221 228 233 237 238 238 239 240 243 245 245
213 213 214 213 214 214 213 212 212 220 218 220 226 230 233 240 247 246 256 257 250 234 215 225 224 225 227 225 216 187 206 214 222 227 232 236 238 240 241 242 243 245 246
216 209 211 212 212 210 211 209 214 213 213 217 224 232 241 241 243 241 248 257 254 245 222 227 224 221 226 225 208 199 219 209 220 226 231 235 238 240 242 243 243 244 246
213 208 207 210 211 210 211 209 216 215 210 214 219 219 233 239 236 242 246 251 257 261 248 214 226 220 226 227 199 225 233 208 215 225 231 235 238 240 242 244 245 246 248
214 208 206 205 208 207 206 209 212 212 213 215 222 229 231 237 232 235 240 245 252 262 268 254 230 234 238 249 205 231 241 207 216 224 229 234 239 243 244 245 245 246 248
206 205 205 204 204 205 206 207 214 209 212 215 218 220 226 239 236 234 234 239 244 250 258 261 250 238 236 262 249 245 247 241 231 214 222 232 239 244 246 246 246 247 249
200 199 200 201 204 205 204 206 214 211 212 213 217 221 226 225 230 245 246 245 246 251 257 263 262 248 232 244 250 252 252 248 252 207 209 225 235 241 245 246 248 249 251
192 192 191 196 201 204 206 207 212 214 216 217 216 219 225 226 229 234 241 247 246 243 247 257 257 260 256 251 254 251 252 257 261 232 207 218 228 236 243 246 247 249 251
184 185 187 192 195 201 206 209 209 211 214 217 217 219 223 226 232 235 236 244 250 253 247 253 258 256 255 255 260 265 262 248 260 268 259 248 231 230 236 238 242 247 250
177 177 181 186 189 191 203 205 205 206 211 214 212 215 220 218 248 248 248 244 247 252 252 252 258 262 263 266 265 270 275 278 264 266 271 265 251 247 239 232 235 241 247
159 163 170 172 171 180 141 159 203 205 207 209 210 213 212 201 207 212 257 286 281 259 263 267 267 272 281 284 290 285 285 281 278 271 274 272 271 270 265 264 242 231 240
140 142 145 146 143 115 106 122 170 204 208 213 217 221 231 209 198 216 205 207 225 236 260 271 275 284 286 291 289 282 283 286 287 292 289 281 278 275 274 276 232 238 247
125 129 130 131 123 101 103 121 152 183 192 205 216 229 229 243 259 267 244 226 228 221 230 241 264 281 299 310 293 283 285 280 275 271 279 281 287 288 292 290 250 237 248
118 117 113 107 102 86 73 91 158 151 132 105 74 58 60 64 32 358 250 234 220 186 116 116 103 296 327 319 307 292 290 287 289 291 293 287 294 297 292 286 268 231 242
115 106 96 90 86 74 59 60 53 141 127 118 105 89 67 52 44 28 328 323 234 270 279 210 207 229 258 250 243 281 296 294 296 295 315 305 299 304 298 291 294 289 273
Height
1566 1568 1569 1571 1573 1574 1576 1577 1579 1580 1581 1582 1583 1584 1585 1585 1586 1587 1586 1585 1586 1586 1587 1588 1589 1590 1590 1591 1592 1593 1594 1594 1595 1596 1596 1597 1598 1598 1599 1599 1600 1600 1601
1566 1567 1568 1570 1572 1574 1576 1577 1578 1579 1581 1582 1583 1584 1585 1585 1585 1586 1586 1585 1585 1586 1587 1588 1588 1589 1590 1591 1592 1592 1593 1594 1595 1595 1596 1597 1597 1598 1598 1599 1599 1600 1600
1564 1566 1569 1570 1572 1573 1574 1576 1577 1579 1580 1581 1582 1583 1584 1584 1585 1585 1586 1586 1586 1586 1586 1587 1588 1589 1589 1590 1591 1591 1592 1593 1594 1595 1595 1596 1597 1597 1598 1598 1599 1599 1600
1562 1565 1567 1569 1570 1572 1573 1575 1577 1578 1580 1581 1581 1582 1583 1583 1583 1584 1585 1585 1586 1587 1586 1586 1587 1588 1588 1589 1590 1590 1591 1592 1593 1593 1594 1595 1595 1596 1597 1597 1598 1598 1599
1560 1563 1566 1568 1569 1571 1573 1575 1576 1577 1578 1579 1580 1581 1582 1582 1582 1583 1584 1584 1585 1585 1586 1585 1586 1586 1587 1588 1588 1589 1589 1590 1591 1592 1592 1593 1594 1595 1595 1596 1596 1597 1597
1558 1561 1564 1565 1567 1569 1570 1573 1574 1575 1576 1578 1579 1580 1580 1581 1582 1582 1583 1583 1584 1584 1585 1585 1585 1585 1585 1586 1587 1587 1588 1588 1589 1590 1591 1591 1592 1593 1593 1594 1594 1595 1595
1556 1559 1562 1563 1565 1567 1569 1571 1572 1574 1575 1576 1578 1578 1579 1579 1580 1580 1581 1582 1582 1583 1583 1584 1584 1585 1584 1584 1585 1585 1586 1586 1587 1588 1588 1589 1590 1590 1591 1591 1592 1592 1593
1552 1556 1558 1561 1563 1564 1566 1568 1570 1572 1573 1574 1576 1577 1577 1578 1577 1578 1579 1579 1580 1581 1581 1582 1582 1582 1583 1583 1583 1583 1584 1584 1585 1585 1586 1586 1587 1588 1588 1589 1589 1590 1590
1549 1552 1555 1558 1560 1562 1564 1565 1567 1569 1571 1572 1574 1575 1576 1575 1575 1576 1576 1577 1578 1578 1579 1580 1580 1580 1580 1581 1581 1581 1581 1582 1582 1583 1583 1584 1584 1585 1585 1586 1586 1587 1587
1546 1549 1552 1554 1556 1559 1561 1563 1565 1567 1568 1570 1571 1572 1574 1574 1574 1574 1575 1575 1575 1576 1577 1578 1578 1578 1578 1579 1579 1579 1579 1579 1580 1580 1581 1581 1582 1582 1582 1583 1583 1583 1583
1542 1545 1548 1550 1553 1555 1558 1560 1561 1563 1565 1567 1569 1570 1571 1572 1573 1573 1573 1574 1574 1574 1574 1575 1576 1576 1576 1577 1577 1577 1577 1577 1577 1578 1578 1578 1579 1579 1579 1579 1579 1580 1580
1538 1541 1544 1546 1549 1551 1553 1556 1558 1560 1562 1564 1566 1567 1569 1570 1571 1571 1571 1571 1572 1572 1572 1572 1573 1574 1574 1574 1575 1574 1574 1574 1575 1575 1575 1575 1576 1576 1576 1576 1576 1576 1576
1533 1536 1540 1542 1545 1547 1550 1552 1554 1556 1558 1560 1562 1564 1566 1567 1568 1569 1569 1569 1569 1569 1569 1570 1570 1571 1571 1572 1572 1571 1571 1571 1572 1572 1572 1572 1572 1573 1573 1573 1572 1572 1572
1529 1532 1535 1538 1541 1544 1546 1548 1550 1552 1554 1556 1558 1560 1562 1564 1565 1566 1567 1567 1567 1567 1567 1567 1567 1568 1568 1569 1568 1568 1568 1568 1568 1569 1569 1569 1569 1569 1569 1569 1569 1568 1568
1525 1528 1531 1534 1537 1540 1542 1545 1547 1549 1551 1553 1555 1556 1558 1560 1561 1562 1563 1564 1565 1564 1563 1564 1565 1565 1565 1565 1565 1565 1565 1565 1565 1565 1565 1565 1565 1565 1565 1565 1564 1564 1564
1521 1524 1527 1530 1533 1536 1538 1541 1543 1545 1547 1549 1551 1552 1554 1556 1558 1558 1559 1560 1561 1561 1561 1561 1562 1562 1561 1562 1561 1561 1561 1561 1561 1561 1561 1561 1561 1560 1560 1560 1560 1559 1559
1516 1519 1522 1526 1529 1532 1534 1537 1540 1542 1543 1545 1547 1549 1550 1552 1553 1555 1556 1556 1557 1558 1558 1558 1558 1558 1557 1557 1557 1557 1557 1557 1557 1556 1556 1555 1555 1555 1555 1554 1554 1554 1553
1512 1516 1519 1522 1525 1528 1531 1533 1536 1538 1540 1541 1543 1545 1547 1548 1549 1550 1551 1552 1553 1553 1554 1554 1554 1555 1553 1553 1552 1552 1553 1553 1552 1551 1550 1550 1550 1550 1549 1549 1548 1548 1547
1510 1513 1516 1519 1522 1525 1527 1530 1532 1535 1537 1538 1540 1541 1543 1544 1545 1546 1547 1548 1549 1549 1549 1550 1550 1550 1550 1549 1548 1548 1548 1547 1547 1547 1545 1544 1544 1543 1543 1542 1542 1541 1541
1508 1510 1513 1516 1519 1522 1524 1527 1529 1531 1533 1535 1536 1537 1538 1540 1541 1542 1543 1543 1544 1545 1545 1545 1546 1546 1545 1545 1544 1544 1544 1543 1542 1542 1541 1540 1538 1537 1536 1535 1535 1534 1534
1506 1508 1511 1514 1516 1519 1521 1524 1526 1528 1530 1531 1532 1533 1535 1536 1537 1538 1539 1540 1541 1541 1541 1542 1542 1542 1541 1541 1540 1540 1539 1538 1537 1536 1535 1535 1533 1532 1530 1528 1527 1527 1526
1504 1507 1509 1512 1514 1517 1519 1521 1523 1525 1527 1528 1529 1530 1531 1532 1533 1534 1535 1536 1537 1537 1538 1538 1538 1538 1537 1537 1536 1535 1535 1534 1533 1532 1530 1529 1528 1527 1525 1524 1522 1520 1519
1503 1505 1508 1510 1512 1515 1517 1519 1521 1523 1524 1525 1526 1527 1528 1529 1530 1530 1531 1532 1532 1533 1533 1534 1534 1533 1533 1532 1531 1531 1530 1529 1528 1527 1525 1523 1523 1521 1520 1518 1516 1514 1513
1503 1505 1507 1509 1511 1513 1515 1517 1519 1521 1522 1522 1523 1523 1525 1526 1527 1527 1528 1528 1528 1528 1529 1529 1529 1529 1529 1528 1527 1527 1526 1524 1523 1522 1521 1519 1517 1516 1514 1512 1510 1507 1506
1503 1505 1507 1509 1511 1513 1515 1516 1518 1519 1519 1520 1520 1521 1522 1523 1524 1524 1525 1525 1525 1525 1525 1525 1525 1525 1525 1524 1523 1523 1522 1521 1519 1518 1516 1514 1512 1510 1508 1506 1504 1502 1499
1504 1506 1508 1509 1511 1513 1515 1516 1517 1518 1518 1519 1519 1519 1520 1521 1521 1521 1522 1523 1523 1523 1523 1523 1522 1522 1521 1521 1520 1519 1518 1517 1515 1514 1512 1510 1508 1506 1503 1501 1500 1497 1495